Find Starlink 30333

NORAD ID: 57702 Int'l Des: 2023-129 Owner: SPXS Country: US Constellation: starlink operational
LEOCIRCULAR

Current View

Loading 3D Globe...

About Starlink 30333

Starlink 30333 (NORAD 57702) is a starlink constellation satellite (v2 mini) launched Aug 27, 2023 by SPXS of US. It operates in LEO, CIRCULAR orbit with a mass of 730.00 kg.

Upcoming Passes

Passes for default location (London). Set your location on the main map for personalized predictions.

Altitude History

Loading altitude history...

Two-Line Element Set

1 57702U 23129E 26237.10592930 .00000199 00000-0 16749-4 0 9997
2 57702 43.0016 246.4440 0001446 270.9851 89.0835 15.27575539166441
Epoch: Aug 25, 2026 • Age: 10 hours

Current Status

Altitude 485.2 km
Apogee / Perigee N/A
Velocity 7.63 km/s
Sub-Earth Point 34.18°N, 143.61°W
Launch Date Aug 27, 2023
Age 2.9 years
Type internet

Technical Details

Classification Payload
Mass 730.00 kg
Dry Mass 700.00 kg
Total Mass 730.00 kg
Length 0.30 m
Diameter 4.10 m
Span 29.00 m
Shape Box + pan
Manufacturer SPXS
Bus Type Starlink V2M
Phase Status In Orbit
Owner/State SPXS/US

Most Searched